Time,TemperatureF,DewpointF,PressureIn,WindDirection,WindDirectionDegrees,WindSpeedMPH,WindSpeedGustMPH,Humidity,HourlyPrecipIn,Conditions,Clouds,dailyrainin,SoftwareType,DateUTC
2013-03-06 00:04:00,23.8,20.0,30.44,North,350,2.0,5.0,84,0.00,,,0.00,weatherlink.com 1.10,2013-03-06 06:04:00,
2013-03-06 00:19:00,23.7,20.0,30.44,North,5,2.0,5.0,84,0.00,,,0.00,weatherlink.com 1.10,2013-03-06 06:19:00,
2013-03-06 00:35:00,23.6,20.0,30.44,NNW,337,1.0,4.0,84,0.00,,,0.00,weatherlink.com 1.10,2013-03-06 06:35:00,
2013-03-06 00:50:00,23.8,20.0,30.45,NNE,15,0.0,5.0,85,0.00,,,0.00,weatherlink.com 1.10,2013-03-06 06:50:00,
2013-03-06 01:05:00,23.9,20.0,30.45,North,5,1.0,4.0,85,0.00,,,0.00,weatherlink.com 1.10,2013-03-06 07:05:00,
2013-03-06 01:20:00,24.0,20.0,30.46,NNW,343,1.0,3.0,85,0.00,,,0.00,weatherlink.com 1.10,2013-03-06 07:20:00,
2013-03-06 01:35:00,23.9,20.0,30.47,NW,318,1.0,4.0,85,0.00,,,0.00,weatherlink.com 1.10,2013-03-06 07:35:00,
2013-03-06 01:50:00,23.9,20.0,30.48,NNW,337,1.0,3.0,86,0.00,,,0.00,weatherlink.com 1.10,2013-03-06 07:50:00,
2013-03-06 02:05:00,24.0,20.0,30.48,NW,318,0.0,4.0,86,0.00,,,0.00,weatherlink.com 1.10,2013-03-06 08:05:00,
2013-03-06 02:20:00,24.0,21.0,30.48,NW,323,2.0,6.0,87,0.00,,,0.00,weatherlink.com 1.10,2013-03-06 08:20:00,
2013-03-06 02:35:00,24.0,20.0,30.48,NNW,333,1.0,7.0,85,0.00,,,0.00,weatherlink.com 1.10,2013-03-06 08:35:00,
2013-03-06 02:50:00,23.8,20.0,30.48,NNW,334,0.0,7.0,84,0.00,,,0.00,weatherlink.com 1.10,2013-03-06 08:50:00,
2013-03-06 03:05:00,23.7,20.0,30.48,NNE,23,2.0,6.0,84,0.00,,,0.00,weatherlink.com 1.10,2013-03-06 09:05:00,
2013-03-06 03:20:00,23.4,20.0,30.48,NW,326,1.0,6.0,85,0.00,,,0.00,weatherlink.com 1.10,2013-03-06 09:20:00,
2013-03-06 03:35:00,23.1,19.0,30.48,NW,312,2.0,6.0,85,0.00,,,0.00,weatherlink.com 1.10,2013-03-06 09:35:00,
2013-03-06 03:50:00,22.8,19.0,30.48,NW,307,4.0,7.0,85,0.00,,,0.00,weatherlink.com 1.10,2013-03-06 09:50:00,
2013-03-06 04:05:00,22.5,18.0,30.49,NW,320,3.0,7.0,84,0.00,,,0.00,weatherlink.com 1.10,2013-03-06 10:05:00,
2013-03-06 04:20:00,22.2,18.0,30.49,NNW,339,0.0,5.0,84,0.00,,,0.00,weatherlink.com 1.10,2013-03-06 10:20:00,
2013-03-06 04:35:00,22.2,18.0,30.50,NNW,336,5.0,5.0,85,0.00,,,0.00,weatherlink.com 1.10,2013-03-06 10:35:00,
2013-03-06 04:50:00,22.0,18.0,30.50,North,360,6.0,11.0,84,0.00,,,0.00,weatherlink.com 1.10,2013-03-06 10:50:00,
2013-03-06 05:05:00,21.9,18.0,30.50,NNW,331,2.0,7.0,84,0.00,,,0.00,weatherlink.com 1.10,2013-03-06 11:05:00,
2013-03-06 05:20:00,22.0,18.0,30.51,NW,316,3.0,6.0,84,0.00,,,0.00,weatherlink.com 1.10,2013-03-06 11:20:00,
2013-03-06 05:35:00,22.0,18.0,30.51,NNW,331,1.0,8.0,84,0.00,,,0.00,weatherlink.com 1.10,2013-03-06 11:35:00,
2013-03-06 05:50:00,22.0,18.0,30.52,NW,323,4.0,8.0,85,0.00,,,0.00,weatherlink.com 1.10,2013-03-06 11:50:00,
2013-03-06 06:05:00,21.9,18.0,30.53,NNW,347,8.0,8.0,85,0.00,,,0.00,weatherlink.com 1.10,2013-03-06 12:05:00,
2013-03-06 06:20:00,21.8,18.0,30.53,WNW,284,4.0,7.0,85,0.00,,,0.00,weatherlink.com 1.10,2013-03-06 12:20:00,
2013-03-06 06:35:00,21.6,18.0,30.53,NNW,339,0.0,8.0,85,0.00,,,0.00,weatherlink.com 1.10,2013-03-06 12:35:00,
2013-03-06 06:50:00,21.5,18.0,30.54,NW,323,1.0,8.0,86,0.00,,,0.00,weatherlink.com 1.10,2013-03-06 12:50:00,
2013-03-06 07:05:00,21.3,18.0,30.54,NW,323,0.0,6.0,86,0.00,,,0.00,weatherlink.com 1.10,2013-03-06 13:05:00,
2013-03-06 07:20:00,21.1,17.0,30.54,NNW,348,1.0,6.0,85,0.00,,,0.00,weatherlink.com 1.10,2013-03-06 13:20:00,
2013-03-06 07:36:00,21.2,17.0,30.55,NW,305,1.0,5.0,85,0.00,,,0.00,weatherlink.com 1.10,2013-03-06 13:36:00,
2013-03-06 07:51:00,21.3,17.0,30.55,NNW,332,1.0,7.0,84,0.00,,,0.00,weatherlink.com 1.10,2013-03-06 13:51:00,
2013-03-06 08:06:00,21.5,17.0,30.55,NW,316,2.0,6.0,84,0.00,,,0.00,weatherlink.com 1.10,2013-03-06 14:06:00,
2013-03-06 08:21:00,21.6,18.0,30.55,NNW,343,3.0,7.0,84,0.00,,,0.00,weatherlink.com 1.10,2013-03-06 14:21:00,
2013-03-06 08:36:00,21.9,18.0,30.55,NNE,17,0.0,7.0,83,0.00,,,0.00,weatherlink.com 1.10,2013-03-06 14:36:00,
2013-03-06 08:51:00,22.2,18.0,30.55,NNW,348,1.0,5.0,82,0.00,,,0.00,weatherlink.com 1.10,2013-03-06 14:51:00,
2013-03-06 09:06:00,22.3,18.0,30.55,NW,306,4.0,8.0,82,0.00,,,0.00,weatherlink.com 1.10,2013-03-06 15:06:00,
2013-03-06 09:21:00,22.2,17.0,30.55,NNE,13,3.0,8.0,81,0.00,,,0.00,weatherlink.com 1.10,2013-03-06 15:21:00,
2013-03-06 09:36:00,22.2,17.0,30.56,NW,307,2.0,7.0,81,0.00,,,0.00,weatherlink.com 1.10,2013-03-06 15:36:00,
2013-03-06 09:51:00,22.3,17.0,30.55,NNE,29,1.0,9.0,81,0.00,,,0.00,weatherlink.com 1.10,2013-03-06 15:51:00,
2013-03-06 10:06:00,22.6,17.0,30.55,North,360,2.0,7.0,80,0.00,,,0.00,weatherlink.com 1.10,2013-03-06 16:06:00,
2013-03-06 10:21:00,22.7,17.0,30.55,West,279,2.0,5.0,80,0.00,,,0.00,weatherlink.com 1.10,2013-03-06 16:21:00,
2013-03-06 10:36:00,23.1,17.0,30.55,NNE,18,4.0,8.0,78,0.00,,,0.00,weatherlink.com 1.10,2013-03-06 16:36:00,
2013-03-06 10:51:00,23.5,17.0,30.54,North,355,0.0,8.0,77,0.00,,,0.00,weatherlink.com 1.10,2013-03-06 16:51:00,
2013-03-06 11:06:00,23.8,17.0,30.54,North,5,0.0,8.0,76,0.00,,,0.00,weatherlink.com 1.10,2013-03-06 17:06:00,
2013-03-06 11:21:00,24.2,18.0,30.54,NNE,14,3.0,8.0,76,0.00,,,0.00,weatherlink.com 1.10,2013-03-06 17:21:00,
2013-03-06 11:36:00,24.5,18.0,30.54,NNW,334,2.0,8.0,77,0.00,,,0.00,weatherlink.com 1.10,2013-03-06 17:36:00,
2013-03-06 11:51:00,24.8,18.0,30.54,NNW,344,3.0,5.0,76,0.00,,,0.00,weatherlink.com 1.10,2013-03-06 17:51:00,
2013-03-06 12:06:00,24.8,18.0,30.53,WNW,296,3.0,5.0,76,0.00,,,0.00,weatherlink.com 1.10,2013-03-06 18:06:00,
2013-03-06 12:21:00,25.2,18.0,30.53,West,276,0.0,5.0,75,0.00,,,0.00,weatherlink.com 1.10,2013-03-06 18:21:00,
2013-03-06 12:36:00,26.0,19.0,30.53,NW,308,2.0,6.0,74,0.00,,,0.00,weatherlink.com 1.10,2013-03-06 18:36:00,
2013-03-06 12:51:00,25.8,19.0,30.53,West,268,3.0,5.0,75,0.00,,,0.00,weatherlink.com 1.10,2013-03-06 18:51:00,
2013-03-06 13:06:00,25.9,18.0,30.52,West,265,3.0,6.0,73,0.00,,,0.00,weatherlink.com 1.10,2013-03-06 19:06:00,
2013-03-06 13:21:00,26.2,19.0,30.52,NW,323,2.0,6.0,73,0.00,,,0.00,weatherlink.com 1.10,2013-03-06 19:21:00,
2013-03-06 13:36:00,26.2,19.0,30.51,NNW,336,5.0,8.0,74,0.00,,,0.00,weatherlink.com 1.10,2013-03-06 19:36:00,
2013-03-06 13:51:00,26.5,19.0,30.51,NNE,12,3.0,4.0,73,0.00,,,0.00,weatherlink.com 1.10,2013-03-06 19:51:00,
2013-03-06 14:06:00,26.7,18.0,30.50,West,261,1.0,6.0,71,0.00,,,0.00,weatherlink.com 1.10,2013-03-06 20:06:00,
2013-03-06 14:21:00,27.0,19.0,30.50,North,350,2.0,5.0,73,0.00,,,0.00,weatherlink.com 1.10,2013-03-06 20:21:00,
2013-03-06 14:36:00,27.1,19.0,30.50,NW,323,4.0,7.0,72,0.00,,,0.00,weatherlink.com 1.10,2013-03-06 20:36:00,
2013-03-06 14:51:00,27.9,20.0,30.49,WNW,294,4.0,5.0,71,0.00,,,0.00,weatherlink.com 1.10,2013-03-06 20:51:00,
2013-03-06 15:06:00,28.1,20.0,30.49,North,5,3.0,7.0,71,0.00,,,0.00,weatherlink.com 1.10,2013-03-06 21:06:00,
2013-03-06 15:21:00,28.2,20.0,30.49,NE,45,2.0,6.0,71,0.00,,,0.00,weatherlink.com 1.10,2013-03-06 21:21:00,
2013-03-06 15:36:00,28.2,20.0,30.49,North,355,1.0,6.0,70,0.00,,,0.00,weatherlink.com 1.10,2013-03-06 21:36:00,
2013-03-06 15:51:00,28.3,20.0,30.49,NW,311,0.0,5.0,71,0.00,,,0.00,weatherlink.com 1.10,2013-03-06 21:51:00,
2013-03-06 16:06:00,28.5,20.0,30.49,West,278,3.0,7.0,70,0.00,,,0.00,weatherlink.com 1.10,2013-03-06 22:06:00,
2013-03-06 16:21:00,28.4,20.0,30.49,NNW,327,2.0,5.0,70,0.00,,,0.00,weatherlink.com 1.10,2013-03-06 22:21:00,
2013-03-06 16:36:00,28.2,20.0,30.48,North,360,2.0,4.0,71,0.00,,,0.00,weatherlink.com 1.10,2013-03-06 22:36:00,
2013-03-06 16:51:00,28.3,20.0,30.48,North,360,1.0,3.0,71,0.00,,,0.00,weatherlink.com 1.10,2013-03-06 22:51:00,
2013-03-06 17:06:00,28.0,19.0,30.48,WNW,283,2.0,6.0,70,0.00,,,0.00,weatherlink.com 1.10,2013-03-06 23:06:00,
2013-03-06 17:21:00,27.8,20.0,30.48,NNW,333,1.0,5.0,71,0.00,,,0.00,weatherlink.com 1.10,2013-03-06 23:21:00,
2013-03-06 17:36:00,27.4,19.0,30.48,West,265,1.0,6.0,72,0.00,,,0.00,weatherlink.com 1.10,2013-03-06 23:36:00,
2013-03-06 17:51:00,27.0,19.0,30.48,NNW,328,3.0,5.0,73,0.00,,,0.00,weatherlink.com 1.10,2013-03-06 23:51:00,
2013-03-06 18:06:00,26.4,19.0,30.48,NW,310,0.0,3.0,74,0.00,,,0.00,weatherlink.com 1.10,2013-03-07 00:06:00,
2013-03-06 18:21:00,25.9,19.0,30.48,WNW,288,2.0,5.0,75,0.00,,,0.00,weatherlink.com 1.10,2013-03-07 00:21:00,
2013-03-06 18:36:00,25.3,19.0,30.48,NW,316,3.0,3.0,76,0.00,,,0.00,weatherlink.com 1.10,2013-03-07 00:36:00,
2013-03-06 18:51:00,24.7,18.0,30.48,WNW,302,2.0,4.0,77,0.00,,,0.00,weatherlink.com 1.10,2013-03-07 00:51:00,
2013-03-06 19:06:00,24.2,18.0,30.49,WNW,303,2.0,2.0,78,0.00,,,0.00,weatherlink.com 1.10,2013-03-07 01:06:00,
2013-03-06 19:21:00,23.7,18.0,30.49,WNW,303,0.0,2.0,78,0.00,,,0.00,weatherlink.com 1.10,2013-03-07 01:21:00,
2013-03-06 19:36:00,23.3,18.0,30.49,WNW,303,0.0,1.0,79,0.00,,,0.00,weatherlink.com 1.10,2013-03-07 01:36:00,
2013-03-06 19:51:00,22.9,18.0,30.49,WNW,303,0.0,2.0,80,0.00,,,0.00,weatherlink.com 1.10,2013-03-07 01:51:00,
2013-03-06 20:06:00,22.6,18.0,30.49,WNW,303,0.0,1.0,81,0.00,,,0.00,weatherlink.com 1.10,2013-03-07 02:06:00,
2013-03-06 20:21:00,22.2,17.0,30.49,WNW,303,0.0,1.0,81,0.00,,,0.00,weatherlink.com 1.10,2013-03-07 02:21:00,
2013-03-06 20:36:00,21.9,17.0,30.48,WNW,303,0.0,1.0,82,0.00,,,0.00,weatherlink.com 1.10,2013-03-07 02:36:00,
2013-03-06 20:51:00,21.6,17.0,30.48,WNW,303,0.0,0.0,83,0.00,,,0.00,weatherlink.com 1.10,2013-03-07 02:51:00,
2013-03-06 21:06:00,21.3,17.0,30.49,WNW,303,0.0,0.0,83,0.00,,,0.00,weatherlink.com 1.10,2013-03-07 03:06:00,
2013-03-06 21:21:00,21.1,17.0,30.49,WNW,303,0.0,0.0,84,0.00,,,0.00,weatherlink.com 1.10,2013-03-07 03:21:00,
2013-03-06 21:36:00,20.8,17.0,30.49,WNW,303,0.0,0.0,84,0.00,,,0.00,weatherlink.com 1.10,2013-03-07 03:36:00,
2013-03-06 21:51:00,20.5,17.0,30.49,WNW,303,0.0,1.0,85,0.00,,,0.00,weatherlink.com 1.10,2013-03-07 03:51:00,
2013-03-06 22:06:00,20.4,17.0,30.49,WNW,303,0.0,0.0,85,0.00,,,0.00,weatherlink.com 1.10,2013-03-07 04:06:00,
2013-03-06 22:21:00,19.9,16.0,30.50,WNW,303,0.0,0.0,85,0.00,,,0.00,weatherlink.com 1.10,2013-03-07 04:21:00,
2013-03-06 22:36:00,19.4,16.0,30.50,WNW,303,0.0,0.0,85,0.00,,,0.00,weatherlink.com 1.10,2013-03-07 04:36:00,
2013-03-06 22:52:00,18.6,15.0,30.50,WNW,303,0.0,0.0,86,0.00,,,0.00,weatherlink.com 1.10,2013-03-07 04:52:00,
2013-03-06 23:07:00,17.8,14.0,30.50,WNW,303,0.0,0.0,86,0.00,,,0.00,weatherlink.com 1.10,2013-03-07 05:07:00,
2013-03-06 23:22:00,17.0,14.0,30.51,WNW,303,0.0,0.0,87,0.00,,,0.00,weatherlink.com 1.10,2013-03-07 05:22:00,
2013-03-06 23:37:00,16.4,13.0,30.51,WNW,303,0.0,0.0,87,0.00,,,0.00,weatherlink.com 1.10,2013-03-07 05:37:00,
2013-03-06 23:52:00,15.7,13.0,30.51,WNW,303,0.0,0.0,88,0.00,,,0.00,weatherlink.com 1.10,2013-03-07 05:52:00,